"Pseudo-MPEC" for W023225

Created 2026 Aug 22 11:35:16 UT using Find_Orb

Click here for an explanation of pseudo-MPECs

 
 Astrometry: 
     W023225* C2026 08 20.89949101 21 49.684+16 31 27.62   ~8M9K 21.16gVNEOCPO18
     W023225  C2026 08 20.90171301 21 49.842+16 31 26.99   ~8M9K 21.56gVNEOCPO18
     W023225  C2026 08 20.90392401 21 50.127+16 31 26.52   ~8M9K 21.11gVNEOCPO18

Station data:
(O18) WFST, Lenghu  (N38.607601 E93.895220)  China.  Observers K. Yan, Z. Q.
   Li, J. Z. Zhu, N. Jiang, Z. Y. Liu. Measurers B. Li, H. B. Zhao, Z. J. Xu,
   G. T. Zhaori. 2.5-m f/2.48 reflector + CCD.

Orbital elements:  W023225
   Perihelion 2026 Oct 21.299767 +/- 42.8 TT =  7:11:39.8 (JD 2461334.799767)
Epoch 2026 Aug 21.0 TT = JDT 2461273.5   Earth MOID: 0.0330   Ve: 0.0544
M 309.064911052 +/- 45              (J2000 ecliptic)             AutoNEOCP
n   0.830918155 +/- 0.641           Peri.  331.360718 +/- 70
a   1.120548220 +/- 0.576           Node   167.648008 +/- 24
e   0.87628789 +/- 0.261            Incl.   33.327034 +/- 41
P   1.186/433.247d         H 20.54  G  0.15   U 12.4  SR
q 0.138625376 +/- 0.554    Q 2.102471064 +/- 27.9
From 3 observations 2026 Aug. 20 (6.4 min); mean residual 0".31
Residuals in arcseconds: 
260820 O18  .31+  .03+    260820 O18  .61-  .05-    260820 O18  .31+  .03+    

Ephemerides (geocentric):
Date (UTC) HH   RA             Dec           delta  r     elong  mag " sig PA
---- --------  ------------   ------------  ------ ------ -----  --- --------
2026 08 22 12  01 24 48.783   +16 23 53.20  .40504 1.2783 123.1 20.7  34d  85
2026 08 22 13  01 24 53.681   +16 23 39.11  .40422 1.2778 123.1 20.7  34d  85
2026 08 22 14  01 24 58.592   +16 23 24.91  .40339 1.2773 123.1 20.7  34d  85
2026 08 22 15  01 25 03.516   +16 23 10.59  .40257 1.2768 123.1 20.7  34d  85
2026 08 22 16  01 25 08.454   +16 22 56.16  .40175 1.2763 123.2 20.7  34d  85
2026 08 22 17  01 25 13.405   +16 22 41.62  .40092 1.2757 123.2 20.7  34d  85
2026 08 22 18  01 25 18.369   +16 22 26.96  .40010 1.2752 123.2 20.7  35d  84
2026 08 22 19  01 25 23.347   +16 22 12.18  .39927 1.2747 123.2 20.7  35d  84
2026 08 22 20  01 25 28.339   +16 21 57.29  .39845 1.2742 123.3 20.7  36d  84
2026 08 22 21  01 25 33.345   +16 21 42.28  .39763 1.2737 123.3 20.7  37d  84
2026 08 22 22  01 25 38.364   +16 21 27.16  .39680 1.2732 123.3 20.7  37d  84
2026 08 22 23  01 25 43.398   +16 21 11.91  .39598 1.2726 123.3 20.7  37d  83
2026 08 23 00  01 25 48.445   +16 20 56.55  .39516 1.2721 123.4 20.7  37d  83
2026 08 23 01  01 25 53.507   +16 20 41.06  .39433 1.2716 123.4 20.7  37d  83
2026 08 23 02  01 25 58.582   +16 20 25.46  .39351 1.2711 123.4 20.7  38d  83
2026 08 23 03  01 26 03.673   +16 20 09.73  .39269 1.2706 123.4 20.7  38d  83
2026 08 23 04  01 26 08.777   +16 19 53.89  .39186 1.2701 123.4 20.7  38d  83
2026 08 23 05  01 26 13.896   +16 19 37.92  .39104 1.2695 123.5 20.6  38d  84
2026 08 23 06  01 26 19.030   +16 19 21.82  .39022 1.2690 123.5 20.6  38d  84
2026 08 23 07  01 26 24.178   +16 19 05.61  .38939 1.2685 123.5 20.6  38d  84
2026 08 23 08  01 26 29.342   +16 18 49.26  .38857 1.2680 123.5 20.6  38d  84
2026 08 23 09  01 26 34.520   +16 18 32.80  .38775 1.2675 123.6 20.6  38d  84
2026 08 23 10  01 26 39.713   +16 18 16.20  .38693 1.2670 123.6 20.6  38d  83
2026 08 23 11  01 26 44.921   +16 17 59.49  .38610 1.2664 123.6 20.6  38d  83
2026 08 23 12  01 26 50.145   +16 17 42.64  .38528 1.2659 123.6 20.6  39d  83
2026 08 23 13  01 26 55.384   +16 17 25.66  .38446 1.2654 123.7 20.6  39d  83
2026 08 23 14  01 27 00.638   +16 17 08.56  .38364 1.2649 123.7 20.6  40d  83
2026 08 23 15  01 27 05.908   +16 16 51.32  .38282 1.2644 123.7 20.6  40d  83
2026 08 23 16  01 27 11.193   +16 16 33.96  .38199 1.2638 123.7 20.6  41d  83
2026 08 23 17  01 27 16.494   +16 16 16.46  .38117 1.2633 123.7 20.6  41d  82
2026 08 23 18  01 27 21.811   +16 15 58.83  .38035 1.2628 123.8 20.6  42d  82
2026 08 23 19  01 27 27.144   +16 15 41.07  .37953 1.2623 123.8 20.6  43d  82
2026 08 23 20  01 27 32.494   +16 15 23.17  .37871 1.2617 123.8 20.6  43d  82
2026 08 23 21  01 27 37.859   +16 15 05.14  .37788 1.2612 123.8 20.6  43d  82
2026 08 23 22  01 27 43.240   +16 14 46.98  .37706 1.2607 123.9 20.6  44d  82
2026 08 23 23  01 27 48.638   +16 14 28.68  .37624 1.2602 123.9 20.6  44d  82
2026 08 24 00  01 27 54.053   +16 14 10.24  .37542 1.2597 123.9 20.5  44d  82
2026 08 24 01  01 27 59.484   +16 13 51.66  .37460 1.2591 123.9 20.5  44d  82
2026 08 24 02  01 28 04.932   +16 13 32.94  .37378 1.2586 124.0 20.5  44d  82
2026 08 24 03  01 28 10.397   +16 13 14.09  .37296 1.2581 124.0 20.5  44d  82
2026 08 24 04  01 28 15.878   +16 12 55.09  .37214 1.2576 124.0 20.5  44d  82
2026 08 24 05  01 28 21.377   +16 12 35.96  .37132 1.2570 124.0 20.5  44d  82
2026 08 24 06  01 28 26.893   +16 12 16.68  .37050 1.2565 124.0 20.5  44d  82
2026 08 24 07  01 28 32.427   +16 11 57.26  .36968 1.2560 124.1 20.5  45d  82
2026 08 24 08  01 28 37.978   +16 11 37.69  .36886 1.2555 124.1 20.5  45d  82
2026 08 24 09  01 28 43.546   +16 11 17.98  .36803 1.2549 124.1 20.5  45d  82
2026 08 24 10  01 28 49.132   +16 10 58.13  .36721 1.2544 124.1 20.5  46d  82
2026 08 24 11  01 28 54.736   +16 10 38.12  .36639 1.2539 124.2 20.5  46d  82